Weather in La Ronge

Canada     55°06′44″N   105°17′43″W
temp.,
°C
wind,
m/s
gust,
m/s
humid.,
%
clouds,
%
prec.,
mm/h
press.,
hPa
HPBL,
m
24 june, thu
thu2400:00+10wnw256943 0.0 1007119
03:00+10w116788 0.0 100923
06:00+12wnw4126526 0.0 1009576
09:00+15nw610480 0.0 10101166
12:00+19nw48400 0.0 10091542
15:00+22nw593436 0.0 10082101
18:00+22wnw48361 0.0 10081815
21:00+19wsw365263 0.0 100877
25 june, fri
fri2500:00+15wsw4126584 0.0 1008204
03:00+16wsw51268100 0.0 1008321
06:00+17wsw51265100 0.0 1008363
09:00+20wsw595182 0.0 1007707
12:00+23w3642100 0.1 10052230
15:00+19nnw5961100 1.6 1006765
18:00+20nne475452 1.6 10061344
21:00+18n226793 0.0 100837
26 june, sat
sat2600:00+15wnw12785 0.0 101011
03:00+11ne33883 0.0 101342
06:00+11ne22876 0.0 101570
09:00+15ne237230 0.0 1016320
12:00+19ne235850 0.0 1017766
15:00+21ese3345100 0.0 1016868
18:00+22ese3342100 0.0 1015303
21:00+16sw368486 0.7 101675
27 june, sun
sun2700:00+15wsw339023 0.7 101646
03:00+13wnw239317 0.0 101645
06:00+14w238996 0.0 101782
09:00+20wnw245799 0.0 1017416
12:00+24ne3538100 0.0 10161833
15:00+25e453279 0.0 10151398
18:00+23ese1140100 0.0 101432
21:00+21ssw224540 0.0 101416
28 june, mon
mon2800:00+17ssw115645 0.0 101520
03:00+16s22658 0.0 101519
06:00+17ssw226891 0.0 101532
09:00+22nw0261100 0.1 1015347
12:00+16ene3690100 2.0 1016164
15:00+17ssw039876 8.6 1016121
18:00+19se258233 12.3 1015323
21:00+17se3598100 1.9 101575